Santander Airport, Spain

5:41 AM CEST on September 29, 2016 (GMT +0200)
Santander Airport

Weather History for LEXJ - November, 2012

Change the Weather History Date:

Saturday, November 24, 2012

  Actual Average Record
Temperature  
Mean Temperature 62 °F -  
Max Temperature 68 °F 56 °F 73 °F (2006)
Min Temperature 55 °F 46 °F 39 °F (2001)
Degree Days  
Heating Degree Days 4    
Growing Degree Days 12 (Base 50)    
Moisture  
Dew Point 45 °F    
Average Humidity 56    
Maximum Humidity 82    
Minimum Humidity 39    
Precipitation  
Precipitation 0.00 in - - ()
Sea Level Pressure  
Sea Level Pressure 29.86 in    
Wind  
Wind Speed 18 mph ()    
Max Wind Speed 30 mph    
Max Gust Speed 47 mph    
Visibility 6.2 miles    
Events Rain    
Averages and records for this station are not official NWS values.
T = Trace of Precipitation, MM = Missing Value Source: Averaged Metar Reports

Daily Weather History Graph

Daily Weather History Graph

Search for Another Location

Airport or City:

Trip Planner

Search our weather history database for the weather conditions in past years. The results will help you decide how hot, cold, wet, or windy it might be!

Date:

Astronomy

Nov. 24, 2012 Rise Set
Actual Time 8:20 AM CET 5:43 PM CET
Civil Twilight 7:48 AM CET 6:15 PM CET
Nautical Twilight 7:13 AM CET 6:50 PM CET
Astronomical Twilight 6:39 AM CET 7:24 PM CET
Moon 3:25 PM CET (11/24) 4:17 AM CET (11/24)
Length of Visible Light 10h 26m
Length of Day
9h 23m
Waxing Gibbous, 85% of the Moon is Illuminated
Nov 24
Waxing Gibbous
Nov 28
Full
Dec 6
Last Quarter
Dec 13
New
Dec 20
First Quarter

Hourly Weather History & Observations

Time (CET) Temp. Dew Point Humidity Pressure Visibility Wind Dir Wind Speed Gust Speed Precip Events Conditions
5:30 AM 60.8 °F 41.0 °F 48% 29.80 in - South 25.3 mph 39.1 mph N/A   Clear
6:00 AM 62.6 °F 39.2 °F 42% 29.80 in - South 23.0 mph - N/A   Clear
6:30 AM 62.6 °F 39.2 °F 42% 29.80 in - South 17.3 mph 28.8 mph N/A   Clear
7:00 AM 62.6 °F 37.4 °F 39% 29.80 in - SSW 18.4 mph 33.4 mph N/A   Clear
7:22 AM 60.8 °F 41.0 °F 48% 29.74 in 6.2 mi South 25.3 mph 46.0 mph N/A Rain Light Rain
7:30 AM 60.8 °F 39.2 °F 45% 29.74 in 6.2 mi South 29.9 mph 47.2 mph N/A Rain Light Rain
8:00 AM 60.8 °F 39.2 °F 45% 29.74 in - SSW 19.6 mph 34.5 mph N/A   Clear
8:30 AM 60.8 °F 39.2 °F 45% 29.74 in - SSW 19.6 mph 34.5 mph N/A   Clear
9:00 AM 62.6 °F 39.2 °F 42% 29.74 in - South 24.2 mph 40.3 mph N/A   Clear
9:30 AM 62.6 °F 37.4 °F 39% 29.74 in - SSW 18.4 mph 38.0 mph N/A   Clear
10:00 AM 62.6 °F 39.2 °F 42% 29.74 in - SSW 24.2 mph 38.0 mph N/A   Clear
10:30 AM 62.6 °F 39.2 °F 42% 29.74 in - SSW 26.5 mph 42.6 mph N/A   Clear
11:00 AM 62.6 °F 39.2 °F 42% 29.74 in - South 25.3 mph 41.4 mph N/A   Clear
11:30 AM 64.4 °F 41.0 °F 42% 29.77 in - South 25.3 mph 42.6 mph N/A   Clear
12:00 PM 64.4 °F 42.8 °F 45% 29.77 in - South 25.3 mph 38.0 mph N/A   Clear
12:30 PM 66.2 °F 42.8 °F 43% 29.74 in - South 27.6 mph 43.7 mph N/A   Clear
1:00 PM 66.2 °F 42.8 °F 43% 29.74 in - South 24.2 mph 40.3 mph N/A   Clear
1:30 PM 66.2 °F 42.8 °F 43% 29.74 in - SSW 19.6 mph 34.5 mph N/A   Clear
2:00 PM 68.0 °F 44.6 °F 43% 29.77 in 6.2 mi SW 19.6 mph 38.0 mph N/A   Partly Cloudy
2:30 PM 68.0 °F 44.6 °F 43% 29.74 in 6.2 mi SSW 20.7 mph 32.2 mph N/A   Partly Cloudy
3:00 PM 68.0 °F 44.6 °F 43% 29.77 in 6.2 mi SSW 13.8 mph 25.3 mph N/A   Partly Cloudy
3:30 PM 68.0 °F 46.4 °F 46% 29.80 in 6.2 mi South 12.7 mph 25.3 mph N/A   Partly Cloudy
4:00 PM 66.2 °F 46.4 °F 49% 29.80 in 6.2 mi South 20.7 mph - N/A   Partly Cloudy
4:30 PM 60.8 °F 53.6 °F 77% 29.89 in 6.2 mi WNW 18.4 mph 29.9 mph N/A   Partly Cloudy
5:00 PM 59.0 °F 51.8 °F 77% 29.92 in 6.2 mi West 10.4 mph - N/A   Scattered Clouds
5:30 PM 59.0 °F 51.8 °F 77% 29.95 in 6.2 mi West 6.9 mph 18.4 mph N/A Rain Light Rain
6:00 PM 59.0 °F 51.8 °F 77% 29.95 in 6.2 mi West 5.8 mph - N/A   Mostly Cloudy
6:30 PM 59.0 °F 51.8 °F 77% 29.98 in 6.2 mi WSW 3.5 mph - N/A   Mostly Cloudy
7:00 PM 59.0 °F 50.0 °F 72% 30.01 in 6.2 mi West 5.8 mph - N/A   Mostly Cloudy
7:30 PM 59.0 °F 50.0 °F 72% 30.01 in 6.2 mi WNW 13.8 mph - N/A   Scattered Clouds
8:00 PM 57.2 °F 50.0 °F 77% 30.04 in 6.2 mi West 13.8 mph - N/A   Scattered Clouds
8:30 PM 57.2 °F 51.8 °F 82% 30.04 in 6.2 mi WNW 17.3 mph - N/A   Mostly Cloudy
9:00 PM 57.2 °F 50.0 °F 77% 30.06 in 6.2 mi WNW 19.6 mph 31.1 mph N/A   Mostly Cloudy
9:30 PM 57.2 °F 48.2 °F 72% 30.06 in 6.2 mi West 12.7 mph - N/A   Mostly Cloudy
10:00 PM 57.2 °F 48.2 °F 72% 30.09 in 6.2 mi West 10.4 mph - N/A   Mostly Cloudy
10:30 PM 57.2 °F 48.2 °F 72% 30.09 in 6.2 mi West 6.9 mph - N/A   Mostly Cloudy
11:00 PM 55.4 °F 48.2 °F 77% 30.12 in 6.2 mi SW 3.5 mph - N/A   Mostly Cloudy
11:30 PM 57.2 °F 48.2 °F 72% 30.12 in 6.2 mi West 8.1 mph - N/A   Mostly Cloudy